Flag for U.S.A. Weather past 2 weeks in Breckenridge, Colorado, U.S.A.

3 °F

Mostly cloudy.

Feels Like: -17 °F
Forecast: 13 / 20 °F
Wind: 18 mph from West

Location: Copper Mountain - Red Cliff Pass

Current Time: Nov 30, 2015 at 10:22:20 AM

Latest Report: Nov 30, 2015 at 9:55 AM

Visibility: 3 mi

Pressure: 29.78 "Hg (20.20 "Hg at 2921m altitude)

Humidity: 72%

Dew point: -4 °F

Location of BreckenridgeLocation

Historic Weather in Breckenridge — Graph


Breckenridge temperature yesterday

Maximum temperature yesterday: 23 °F (at 1:35 AM)
Minimum temperature yesterday: 12 °F (at 5:35 AM)
Average temperature yesterday: 17 °F

Past Weeks' High & Low Weather Summary

High37 °F (Nov 25, 2:36 PM)86% (Nov 16, 12:56 PM)30.37 "Hg (Nov 16, 12:56 PM)
Low1 °F (Nov 30, 8:15 AM)8% (Nov 21, 7:36 AM)29.55 "Hg (Nov 16, 12:16 PM)
Average24 °F52%29.99 "Hg
* Reported Nov 15 9:36 AM — Nov 30 9:15 AM, Breckenridge, Weather by CustomWeather, © 2015

Note: Actual official high and low records may vary slightly from our data, if they occured in-between our weather recording intervals... More about our weather records


Breckenridge weather history for previous 24 hours

Time TempWeatherWind HumidityBarometerVisibility
9:15 AM
Mon, Nov 30
3 °FLight snow. Low clouds.13 mph72%29.77 "Hg1 mi
8:55 AM3 °FLight snow. Low clouds.10 mph72%29.77 "Hg1 mi
8:35 AM3 °FLight snow. Low clouds.12 mph66%29.76 "Hg1 mi
8:15 AM1 °FLight snow. Low clouds.12 mph71%29.76 "Hg1 mi
7:55 AM3 °FLight snow. Low clouds.10 mph66%29.76 "Hg2 mi
7:35 AM3 °FOvercast.14 mph66%29.76 "Hg2 mi
7:15 AM5 °FMostly cloudy.15 mph66%29.76 "Hg2 mi
6:55 AM5 °FLight snow. Mostly cloudy.12 mph66%29.76 "Hg2 mi
6:35 AM5 °FLight snow. Mostly cloudy.13 mph66%29.76 "Hg2 mi
6:15 AM5 °FLight snow. Mostly cloudy.13 mph66%29.75 "Hg3 mi
5:55 AM5 °FLight snow. Mostly cloudy.8 mph66%29.75 "Hg1 mi
5:35 AM5 °FLight snow. Mostly cloudy.9 mph66%29.75 "Hg2 mi
5:15 AM5 °FLight snow. Mostly cloudy.10 mph66%29.74 "Hg1 mi
4:55 AM5 °FLight snow. Mostly cloudy.9 mph66%29.74 "Hg2 mi
4:35 AM5 °FPassing clouds.10 mph78%29.74 "Hg7 mi
4:15 AM5 °FLight snow. Overcast.10 mph78%29.74 "Hg4 mi
3:55 AM7 °FLight snow. Overcast.13 mph72%29.73 "Hg3 mi
3:35 AM7 °FLight snow. Low clouds.8 mph72%29.74 "Hg2 mi
3:15 AM9 °FLight snow. Low clouds.8 mph66%29.73 "Hg2 mi
2:55 AM9 °FLight snow. Low clouds.10 mph72%29.73 "Hg1 mi
2:35 AM9 °FLight snow. Low clouds.12 mph72%29.73 "Hg1 mi
2:15 AM9 °FLight snow. Low clouds.15 mph72%29.72 "Hg2 mi
1:55 AM9 °FLight snow. Low clouds.20 mph72%29.71 "Hg2 mi
1:35 AM9 °FSnow. Low clouds.14 mph72%29.72 "Hg1 mi
12:55 AM10 °FLight snow. Low clouds.9 mph72%29.73 "Hg1 mi
12:15 AM12 °FLight snow. Low clouds.6 mph73%29.74 "Hg1 mi
11:55 PM
Sun, Nov 29
12 °FLight snow. Low clouds.3 mph73%29.73 "Hg1 mi
11:35 PM12 °FLight snow. Mostly cloudy.3 mph73%29.74 "Hg1 mi
10:55 PM12 °FLight snow. Overcast.5 mph73%29.74 "Hg4 mi
10:35 PM12 °FMostly cloudy.7 mph73%29.75 "Hg5 mi
10:15 PM12 °FLight snow. Overcast.5 mph73%29.76 "Hg4 mi
9:55 PM12 °FLight snow. Overcast.7 mph73%29.76 "Hg2 mi
9:35 PM12 °FSnow. Overcast.3 mph73%29.76 "Hg1 mi
8:35 PM14 °FSnow. Mostly cloudy.No wind79%29.79 "Hg1 mi
8:15 PM14 °FLight snow. Mostly cloudy.No wind79%29.79 "Hg1 mi
7:55 PM14 °FSnow. Overcast.3 mph79%29.80 "Hg1 mi
7:35 PM14 °FSnow. Mostly cloudy.5 mph79%29.81 "Hg1 mi
7:15 PM14 °FLight snow. Low clouds.7 mph79%29.81 "Hg1 mi
5:35 PM16 °FLight snow. Overcast.10 mph62%29.84 "Hg5 mi
5:15 PM18 °FOvercast.12 mph53%29.83 "Hg10 mi
4:35 PM18 °FBroken clouds.10 mph49%29.83 "Hg10 mi
3:55 PM19 °FCloudy.16 mph45%29.83 "Hg10 mi
3:35 PM19 °FCloudy.13 mph45%29.83 "Hg10 mi
2:55 PM19 °FBroken clouds.20 mph42%29.82 "Hg10 mi
2:35 PM19 °FMostly cloudy.20 mph38%29.83 "Hg10 mi
1:55 PM19 °FMostly cloudy.14 mph35%29.84 "Hg10 mi
1:35 PM21 °FMore clouds than sun.10 mph32%29.84 "Hg10 mi
1:15 PM19 °FBroken clouds.12 mph38%29.84 "Hg10 mi
12:55 PM23 °FBroken clouds.14 mph39%29.84 "Hg10 mi
12:35 PM21 °FScattered clouds.15 mph42%29.84 "Hg10 mi
12:15 PM21 °FScattered clouds.18 mph45%29.85 "Hg10 mi
11:55 AM19 °FPartly sunny.16 mph49%29.87 "Hg10 mi
11:35 AM19 °FPartly sunny.15 mph49%29.87 "Hg10 mi
11:15 AM19 °FScattered clouds.14 mph53%29.89 "Hg10 mi
10:55 AM19 °FLight snow. Scattered clouds.10 mph63%29.90 "Hg7 mi
10:35 AM21 °FLight snow. Broken clouds.12 mph58%29.90 "Hg5 mi
10:15 AM19 °FLight snow. Mostly cloudy.5 mph73%29.92 "Hg2 mi
Weather by CustomWeather, © 2015

See weather overviewHow to use our weather pages